LU1MQF-13 Weather Reports


time (UTC)temp
C
wind
direction
speed
KPH
gust
KPH
rain 1hr
cm
rain 24hr
cm
rain mn
cm
humidity
%
barometer
mb
20260505121208 15 0 0.0 0.0 0.00 0.00 0.00 50 935.7
20260505115707 13 0 0.0 0.0 0.00 0.00 0.00 50 935.3
20260505114208 13 0 0.0 0.0 0.00 0.00 0.00 51 935.5
20260505112708 13 0 0.0 0.0 0.00 0.00 0.00 49 935.2
20260505111208 13 0 0.0 0.0 0.00 0.00 0.00 49 934.6
20260505101207 13 0 0.0 0.0 0.00 0.00 0.00 48 933.6
20260505095708 13 0 0.0 0.0 0.00 0.00 0.00 48 933.2
20260505094208 13 0 0.0 0.0 0.00 0.00 0.00 48 933.3
20260505092707 13 0 0.0 0.0 0.00 0.00 0.00 48 932.8
20260505091207 13 0 0.0 0.0 0.00 0.00 0.00 48 933.0
20260505085707 13 0 0.0 0.0 0.00 0.00 0.00 48 933.1
20260505084207 13 0 0.0 0.0 0.00 0.00 0.00 48 933.1
20260505082707 15 0 0.0 0.0 0.00 0.00 0.00 48 933.3
20260505081208 15 0 0.0 0.0 0.00 0.00 0.00 48 933.1
20260505075708 15 0 0.0 0.0 0.00 0.00 0.00 48 933.2
20260505074207 15 0 0.0 0.0 0.00 0.00 0.00 48 933.3
20260505072707 15 0 0.0 0.0 0.00 0.00 0.00 48 933.3
20260505071207 15 0 0.0 0.0 0.00 0.00 0.00 49 933.3
20260505065707 15 0 0.0 0.0 0.00 0.00 0.00 49 933.3
20260505064207 15 0 0.0 0.0 0.00 0.00 0.00 49 933.5
20260505062706 15 0 0.0 0.0 0.00 0.00 0.00 49 933.4
20260505061208 15 0 0.0 0.0 0.00 0.00 0.00 49 933.5
20260505055707 15 0 0.0 0.0 0.00 0.00 0.00 49 933.6
20260505054207 15 0 0.0 0.0 0.00 0.00 0.00 49 933.3
20260505052707 15 0 0.0 0.0 0.00 0.00 0.00 49 933.2
20260505051207 15 0 0.0 0.0 0.00 0.00 0.00 49 933.2
20260505041207 17 0 0.0 0.0 0.00 0.00 0.00 53 933.1
20260505035707 16 0 0.0 0.0 0.00 0.00 0.00 54 933.1
20260505034206 15 0 0.0 0.0 0.00 0.00 0.00 49 933.1
20260505032706 16 0 0.0 0.0 0.00 0.00 0.00 49 933.2
20260505031207 16 0 0.0 0.0 0.00 0.00 0.00 49 933.2
20260505025707 17 0 0.0 0.0 0.00 0.00 0.00 54 933.2
20260505024207 17 0 0.0 0.0 0.00 0.00 0.00 52 933.2
20260505022707 16 0 0.0 0.0 0.00 0.00 0.00 47 933.1
20260505021207 16 0 0.0 0.0 0.00 0.00 0.00 47 933.0
20260505015707 16 0 0.0 0.0 0.00 0.00 0.00 47 933.1
20260505014206 16 0 0.0 0.0 0.00 0.00 0.00 47 933.0
20260505012707 16 0 0.0 0.0 0.00 0.00 0.00 48 932.9
20260505011207 17 0 0.0 0.0 0.00 0.00 0.00 49 933.0
20260505005707 17 0 0.0 0.0 0.00 0.00 0.00 47 932.7
20260505004207 17 0 0.0 0.0 0.00 0.00 0.00 47 932.6
20260505002707 17 0 0.0 0.0 0.00 0.00 0.00 46 932.8
20260505001207 17 0 0.0 0.0 0.00 0.00 0.00 46 932.7
20260504235707 17 0 0.0 0.0 0.00 0.00 0.00 46 932.5
20260504234206 17 0 0.0 0.0 0.00 0.00 0.00 46 932.3
20260504232706 17 0 0.0 0.0 0.00 0.00 0.00 46 932.0
20260504231207 17 0 0.0 0.0 0.00 0.00 0.00 46 931.7
20260504225707 17 0 0.0 0.0 0.00 0.00 0.00 46 931.7
20260504224206 17 0 0.0 0.0 0.00 0.00 0.00 46 931.4
20260504222706 18 0 0.0 0.0 0.00 0.00 0.00 46 931.3
20260504221206 18 0 0.0 0.0 0.00 0.00 0.00 46 931.1
20260504215707 18 0 0.0 0.0 0.00 0.00 0.00 48 931.2
20260504214206 21 0 0.0 0.0 0.00 0.00 0.00 48 931.1
20260504212706 21 0 0.0 0.0 0.00 0.00 0.00 52 931.0
20260504211206 22 0 0.0 0.0 0.00 0.00 0.00 45 930.8
20260504205706 21 0 0.0 0.0 0.00 0.00 0.00 34 930.6
20260504204206 22 0 0.0 0.0 0.00 0.00 0.00 34 930.5
20260504202706 22 0 0.0 0.0 0.00 0.00 0.00 34 930.5
20260504201206 22 0 0.0 0.0 0.00 0.00 0.00 34 930.4
20260504195706 22 0 0.0 0.0 0.00 0.00 0.00 34 930.3
20260504192706 22 0 0.0 0.0 0.00 0.00 0.00 34 930.2
20260504191206 22 0 0.0 0.0 0.00 0.00 0.00 34 930.2
20260504185707 22 0 0.0 0.0 0.00 0.00 0.00 34 930.2
20260504184206 22 0 0.0 0.0 0.00 0.00 0.00 34 930.4
20260504182706 22 0 0.0 0.0 0.00 0.00 0.00 34 930.3
20260504181206 22 0 0.0 0.0 0.00 0.00 0.00 34 930.4
20260504175707 22 0 0.0 0.0 0.00 0.00 0.00 34 930.5
20260504174206 22 0 0.0 0.0 0.00 0.00 0.00 36 930.6
20260504172706 22 0 0.0 0.0 0.00 0.00 0.00 34 930.7
20260504171205 22 0 0.0 0.0 0.00 0.00 0.00 33 931.0
20260504141206 17 0 0.0 0.0 0.00 0.00 0.00 40 933.3